Probability
1 2 2 1 0 0 1 1 1 0 0 0 0 0 0 0 0 0 0 0 0 0 0 0 0 0 0 0 0 0 0 0 0 0 0 0 0 0 0 0 0 0 0
0 1 1 0 0 0 0 0 0 0 0 0 0 0 0 0 0 0 0 0 0 0 0 0 0 0 0 0 0 0 0 0 0 0 0 0 0 0 0 0 0 0 0
0 0 0 0 0 0 0 0 0 0 0 0 0 0 0 0 0 0 0 0 0 0 0 0 0 0 0 0 0 0 0 0 0 0 0 0 0 0 0 0 0 0 0
0 0 0 0 0 0 0 0 0 0 0 0 0 0 0 0 0 0 0 0 0 0 0 0 0 0 0 0 0 0 0 0 0 0 0 0 0 0 0 0 0 0 0
0 0 0 0 0 0 0 0 0 0 0 0 0 0 0 0 0 0 0 0 0 0 0 0 0 0 0 0 0 0 0 0 0 0 0 0 0 0 0 0 0 0 0
0 0 0 0 0 0 0 0 0 0 0 0 0 0 0 0 0 0 0 0 0 0 0 0 0 0 0 0 0 0 0 0 0 0 0 0 0 0 0 0 0 0 0
0 0 0 0 0 0 0 0 0 0 0 0 0 0 0 0 0 0 0 0 0 0 0 0 0 0 0 0 0 0 0 0 0 0 0 0 0 0 0 0 0 0 0
0 0 0 0 0 0 0 0 0 0 0 0 0 0 0 0 0 0 0 0 0 0 0 0 0 0 0 0 0 0 0 0 0 0 0 0 0 0 0 0 0 0 0
0 0 0 0 0 0 0 0 0 0 0 0 0 0 0 0 0 0 0 0 0 0 0 0 0 0 0 0 0 0 0 0 0 0 0 0 0 0 0 0 0 0 0
0 0 0 0 0 0 0 0 0 0 0 0 0 0 0 0 0 0 0 0 0 0 0 0 0 0 0 0 0 0 0 0 0 0 0 0 0 0 0 0 0 0 0
0 0 0 0 0 0 0 0 0 0 0 0 0 0 0 0 0 0 0 0 0 0 0 0 0 0 0 0 0 0 0 0 0 0 0 0 0 0 0 0 0 0 0
0 0 0 0 0 0 0 0 0 0 0 0 0 0 0 0 0 0 0 0 0 0 0 0 0 0 0 0 0 0 0 0 0 0 0 0 0 0 0 0 0 0 0
0 0 0 0 0 0 0 0 0 0 0 0 0 0 0 0 0 0 0 0 0 0 0 0 0 0 0 0 0 0 0 0 0 0 0 0 0 0 0 0 0 0 0
0 0 0 0 0 0 0 0 0 0 0 0 0 0 0 0 0 0 0 0 0 0 0 0 0 0 0 0 0 0 0 0 0 0 0 0 0 0 0 0 0 0 0
0 0 0 0 0 0 0 0 0 0 0 0 0 0 0 0 0 0 0 0 0 0 0 0 0 0 0 0 0 0 0 0 0 0 0 0 0 0 0 0 0 0 0
0 0 0 0 0 0 0 0 0 0 0 0 0 0 0 0 0 0 0 0 0 0 0 0 0 0 0 0 0 0 0 0 0 0 0 0 0 0 0 0 0 0 0
0 0 0 0 0 0 0 0 0 0 0 0 0 0 0 0 0 0 0 0 0 0 0 0 0 0 0 0 0 0 0 0 0 0 0 0 0 0 0 0 0 0 0
0 0 0 0 0 0 0 0 0 0 0 0 0 0 0 0 0 0 0 0 0 0 0 0 0 0 0 0 0 0 0 0 0 0 0 0 0 0 0 0 0 0 0
0 0 0 0 0 0 0 0 0 0 0 0 0 0 0 0 0 0 0 0 0 0 0 0 0 0 0 0 0 0 0 0 0 0 0 0 0 0 0 0 0 0 0
0 0 0 0 0 0 0 0 0 0 0 0 0 0 0 0 0 0 0 0 0 0 0 0 0 0 0 0 0 0 0 0 0 0 0 0 0 0 0 0 0 0 0
0 0 0 0 0 0 0 0 0 0 0 0 0 0 0 0 0 0 0 0 0 0 0 0 0 0 0 0 0 0 0 0 0 0 0 0 0 0 0 0 0 0 0
0 0 0 0 0 0 0 0 0 0 0 0 0 0 0 0 0 0 0 0 0 0 0 0 0 0 0 0 0 0 0 0 0 0 0 0 0 0 0 0 0 0 0
0 0 0 0 0 0 0 0 0 0 0 0 0 0 0 0 0 0 0 0 0 0 0 0 0 0 0 0 0 0 0 0 0 0 0 0 0 0 0 0 0 0 0
0 0 0 0 0 0 0 0 0 0 0 0 0 0 0 0 0 0 0 0 0 0 0 0 0 0 0 0 0 0 0 0 0 0 0 0 0 0 0 0 0 0 0
0 0 0 0 0 0 0 0 0 0 0 0 0 0 0 0 0 0 0 0 0 0 0 0 0 0 0 0 0 0 0 0 0 0 0 0 0 0 0 0 0 0 0
0 0 0 0 0 0 0 0 0 0 0 0 0 0 0 0 0 0 0 0 0 0 0 0 0 0 0 0 0 0 0 0 0 0 0 0 0 0 0 0 0 0 0
Wind_Speed
5 5 5 5 5 5 5 5 6 6 6 6 5 5 5 5 4 3 4 4 4 3 3 3 4 4 4 4 4 4 5 5 8 6 3 2 3 4 4 4 4 4 4
5 5 5 6 6 6 6 6 6 6 6 6 5 5 5 5 5 5 5 4 4 5 5 4 5 4 4 4 4 5 5 5 6 9 5 3 4 4 4 5 4 3 4
5 5 5 6 6 6 6 6 6 6 6 6 6 6 6 6 6 6 5 5 5 5 5 5 5 5 5 5 5 5 5 5 5 6 6 4 3 3 4 4 4 4 4
4 4 5 6 6 5 6 6 6 6 6 6 6 6 6 6 6 6 6 6 5 5 4 4 4 4 5 5 5 5 5 5 5 5 5 4 3 3 3 3 4 3 4
4 4 4 5 5 5 5 6 6 6 6 6 6 6 6 5 5 6 6 5 5 5 5 4 5 5 6 5 5 5 5 4 4 4 5 4 4 3 3 3 5 4 5
4 4 4 5 5 5 5 5 6 6 6 6 6 6 7 6 9 10 8 6 5 5 6 5 5 5 7 8 8 7 5 4 4 4 4 5 6 4 4 4 4 4 5
4 5 5 5 5 6 6 5 5 6 6 6 6 6 6 8 11 11 10 7 6 5 5 5 5 5 5 5 7 7 6 6 6 5 5 6 5 5 4 5 5 5 6
4 5 5 5 5 6 5 5 5 5 5 5 6 6 6 8 11 12 11 7 6 6 5 5 6 6 6 6 5 5 5 5 5 4 4 5 5 4 4 5 5 5 5
4 5 5 5 6 6 6 6 5 5 6 6 6 6 6 8 11 12 11 6 5 6 6 5 5 6 8 8 6 6 6 5 5 5 6 5 6 6 5 3 3 3 4
5 5 5 5 5 6 6 6 6 5 6 6 6 6 6 7 10 12 11 5 6 6 5 5 6 7 8 8 5 5 6 6 5 5 5 5 4 5 6 3 3 3 3
5 5 5 5 6 6 6 5 5 5 6 6 7 7 6 7 9 11 12 6 6 6 5 5 5 9 10 9 7 5 7 6 4 4 4 4 3 3 3 3 3 3 3
5 5 6 6 6 5 5 6 5 5 6 6 6 7 5 5 7 9 12 11 10 7 6 5 6 10 10 10 7 7 8 6 3 3 3 3 3 3 3 3 3 3 3
5 5 5 6 6 6 5 6 5 5 4 5 5 6 6 5 6 11 12 13 12 8 6 9 10 11 10 7 7 8 5 2 2 2 3 3 3 3 3 3 3 3 3
5 5 5 5 6 5 5 4 4 4 5 5 6 6 6 6 6 5 6 7 8 8 6 7 9 10 8 6 5 4 3 2 2 3 3 3 3 3 3 3 3 3 3
5 5 5 5 5 5 5 5 6 6 6 7 6 6 7 7 9 13 10 7 6 6 6 4 3 3 3 3 3 2 2 2 2 2 2 2 3 3 3 2 2 2 2
5 5 4 4 4 4 5 6 9 10 12 13 12 11 9 12 16 15 15 14 13 11 6 4 4 3 4 4 3 3 3 2 2 2 2 2 3 3 3 3 2 2 2
5 5 4 4 4 5 5 6 7 8 11 12 12 14 13 14 15 14 14 13 11 9 4 4 4 4 4 3 3 3 3 3 3 2 2 2 2 2 2 2 2 2 2
5 5 5 4 4 5 5 5 6 6 7 7 9 13 14 14 13 13 12 9 6 4 3 4 4 4 4 3 3 3 3 3 2 2 3 2 2 2 2 2 2 2 2
4 4 4 4 4 5 5 5 5 6 6 6 6 8 9 11 11 11 9 3 4 4 4 4 4 4 4 3 3 3 3 3 3 3 2 2 2 1 2 2 2 2 2
4 6 5 4 4 4 4 5 5 5 5 5 6 6 5 5 4 5 4 3 3 4 4 4 4 4 3 3 3 3 3 3 2 2 2 2 2 2 2 2 2 2 2
3 4 5 4 4 4 5 5 5 5 5 5 6 7 10 5 5 5 4 4 4 4 4 4 4 4 3 3 3 3 3 2 2 2 2 2 2 2 2 2 2 2 2
3 3 3 4 4 4 5 5 5 5 5 6 6 6 9 5 4 4 4 4 4 4 4 4 4 4 3 3 3 3 3 3 3 2 2 2 2 1 1 1 1 2 2
3 3 4 4 4 5 5 5 4 5 5 5 5 5 4 4 4 4 5 4 4 4 3 3 4 4 3 3 3 3 4 4 4 3 3 2 2 2 2 2 2 2 2
3 3 4 4 4 4 5 5 4 5 5 5 4 4 4 4 4 5 5 4 4 4 4 3 4 5 5 4 3 3 3 4 3 3 4 3 3 2 2 2 2 2 2
3 3 4 4 4 4 5 5 4 4 4 4 4 4 4 4 4 4 4 4 4 4 5 4 3 4 5 5 5 4 5 5 4 3 3 3 3 3 3 3 3 2 3
3 4 4 4 4 4 4 4 5 5 5 4 4 4 4 4 4 4 4 4 4 4 5 4 4 5 5 5 5 6 5 5 5 5 4 3 3 3 3 3 3 3 3
Wind_Direction
12 12 13 12 11 9 6 359 352 348 347 344 340 341 342 342 338 328 320 322 312 309 312 310 304 309 300 290 279 270 266 261 270 281 281 280 274 278 287 279 273 269 272
8 13 12 10 9 9 5 355 351 349 346 346 344 344 342 338 335 328 316 316 310 306 305 305 303 305 304 299 297 285 276 270 268 278 282 279 275 278 281 278 278 274 269
10 14 11 7 7 2 358 352 351 350 350 352 352 350 347 340 338 333 325 319 310 303 301 302 305 307 302 301 298 293 289 281 268 270 277 277 276 282 286 281 279 275 276
6 9 7 0 356 354 351 348 347 349 351 351 347 344 344 340 339 334 330 325 318 316 317 316 313 311 306 305 300 299 297 291 280 273 277 279 277 281 282 281 287 280 283
2 3 355 350 349 351 351 346 345 348 347 343 342 342 341 336 338 332 324 322 320 319 319 316 315 316 314 309 303 304 307 301 297 291 284 285 280 283 281 280 278 287 280
356 351 347 350 349 348 345 342 340 342 341 341 340 336 337 334 336 336 329 317 315 316 315 313 310 313 317 317 313 308 303 298 299 295 292 287 288 288 291 283 284 286 279
350 345 345 344 342 338 336 337 335 333 332 332 329 328 325 326 330 329 327 315 308 305 305 309 310 314 312 312 316 315 310 305 293 282 283 285 288 289 287 282 278 277 275
342 338 336 334 330 327 327 326 322 321 319 316 316 314 314 319 325 324 323 314 306 304 302 302 305 312 314 314 312 311 309 310 307 298 285 287 292 295 285 279 280 284 282
330 327 324 323 321 321 320 317 315 314 313 311 309 310 311 313 319 321 324 311 307 306 304 302 301 301 308 315 309 305 305 306 313 308 302 303 307 312 312 302 297 294 290
318 318 319 319 314 311 310 308 309 308 306 308 306 304 303 304 311 316 318 307 304 302 300 298 294 299 304 307 301 297 296 300 309 315 319 323 321 321 327 310 287 280 283
319 319 317 315 309 305 306 306 308 307 307 305 303 300 297 298 306 312 314 306 299 297 295 295 292 297 299 301 300 291 291 298 297 299 303 307 312 317 324 323 311 280 270
320 316 313 312 309 310 309 308 309 307 304 302 301 299 295 295 299 306 309 305 301 293 290 290 290 296 297 298 298 295 298 300 293 291 293 299 305 311 316 317 313 308 288
312 305 305 308 310 311 307 305 305 302 296 296 295 295 298 298 300 305 305 304 302 297 290 290 295 297 297 294 299 302 303 293 286 287 288 292 299 301 310 315 322 321 315
298 300 304 307 308 309 304 297 291 290 289 291 293 293 295 295 294 296 295 297 297 296 295 293 293 295 296 300 305 304 302 290 281 279 287 293 304 310 313 318 314 321 318
292 295 300 298 298 301 297 288 287 277 273 282 281 281 286 289 289 296 298 294 292 285 295 294 292 295 296 297 301 306 307 307 300 297 288 296 302 308 310 317 310 316 309
288 293 293 293 294 294 298 301 293 289 293 293 291 290 286 287 296 297 299 300 303 302 298 281 281 282 283 284 285 292 293 292 296 295 289 289 294 299 307 312 317 317 311
274 284 287 287 288 291 293 295 300 305 300 300 301 300 297 299 301 301 302 304 305 304 289 278 275 275 275 274 273 275 280 284 288 284 284 286 289 293 297 303 315 324 316
275 276 275 277 279 280 281 282 284 289 298 299 304 306 307 308 307 306 306 310 302 296 270 271 273 272 269 265 266 269 276 285 284 283 281 276 271 275 282 287 296 304 306
276 276 275 277 277 278 280 281 281 282 284 291 300 307 313 313 312 310 313 295 281 281 278 272 270 271 268 260 258 260 263 268 271 271 272 274 273 271 276 280 286 290 294
272 274 278 278 279 280 279 279 282 283 284 287 291 298 307 309 307 310 309 293 281 279 277 275 274 270 265 258 255 256 261 263 266 267 268 273 271 264 265 269 270 278 284
272 276 277 279 276 276 278 277 278 280 281 283 284 289 298 301 296 294 293 289 283 282 281 280 275 267 257 252 247 246 250 258 259 259 261 266 265 266 271 271 272 272 283
267 270 272 272 277 278 279 279 278 277 279 282 289 295 300 298 288 286 286 285 282 277 273 273 275 267 253 245 240 240 247 251 249 247 250 256 260 268 270 266 269 277 281
266 272 279 278 278 281 283 280 278 278 279 281 286 291 291 285 284 284 286 291 291 289 286 279 277 277 268 255 244 237 239 243 240 232 236 248 251 247 250 252 250 262 272
262 267 274 281 281 280 281 282 280 280 283 286 288 288 287 286 286 288 290 293 292 291 290 287 282 282 282 278 267 253 244 243 236 230 223 224 235 238 242 247 247 247 258
263 267 271 275 278 280 282 283 283 284 285 286 287 288 289 289 289 291 293 295 296 298 299 297 291 289 288 285 281 270 261 261 251 230 217 215 221 228 234 239 242 248 255
265 268 272 274 275 277 280 283 285 287 287 288 288 288 289 290 291 293 296 297 299 300 300 297 293 293 292 290 284 280 271 264 253 235 214 205 212 225 225 231 232 238 246